[[{"header":{"parameterUnit":"m.s-1","parameterCategory":1,"la1":30.2991,"la2":30.254,"lo1":-89.0895,"lo2":-89.0444,"dy":0.0017,"dx":0.0017,"nx":28,"ny":28,"refTime":"2026-01-09T03:00:00:Z","depth":0,"parameterNumber":2,"parameterNumberName":"U-component_of_WINDS"},"data":[0,0,0,0,0,0,0,0,0,0,0,0,0,0,0,0,0,0,0,0,0,0,0,0,0,0,0,0,0,0,0,0,0,0,0,0,0,0,0,0,0,0,0,0,0,0,0,0,0,0,0,0,0,0,0,0,0,0,-2.0164,-2.0165,0,-2.0276,-2.0278,-2.0279,-2.0325,-2.0325,-2.0325,-2.0324,-2.0444,-2.0447,-2.045,0,0,0,0,0,0,0,0,0,0,0,0,0,-1.9994,-1.9996,-2.0164,-2.0165,-2.0167,-2.0276,-2.0278,-2.0279,-2.0325,-2.0325,-2.0324,-2.0324,-2.0442,-2.0447,-2.0451,0,0,0,0,0,0,0,0,0,0,0,0,0,-2.0083,-1.9997,-2.0164,-2.0203,-2.0207,-2.0276,-2.0278,-2.028,-2.0325,-2.0325,-2.0324,-2.0324,-2.0441,-2.0446,-2.0451,-2.049,0,0,-2.0467,-2.0469,0,0,0,0,0,0,0,0,-2.0078,-2.0089,-2.0196,-2.02,-2.0206,-2.0286,-2.0261,-2.035,-2.0325,-2.0281,-2.0324,-2.0324,-2.0392,-2.0401,-2.0423,-2.0496,-2.0501,-2.0467,-2.047,-2.0473,-2.0474,0,0,0,0,0,0,0,-2.0072,-2.0085,-2.0209,-2.0197,-2.0203,-2.0216,-2.0228,-2.0278,-2.0337,-2.0284,-2.0288,-2.03,-2.0395,-2.0418,-2.0426,-2.0503,-2.0467,-2.0472,-2.0475,-2.0477,-2.0614,-2.0614,0,0,0,0,0,0,-2.0058,-2.0079,-2.0205,-2.0212,-2.0139,-2.0219,-2.0233,-2.0261,-2.0337,-2.0348,-2.0301,-2.0302,-2.0409,-2.042,-2.0431,-2.0481,-2.0473,-2.0477,-2.048,-2.0613,-2.0614,-2.0615,0,0,0,0,0,0,-2.0054,-2.0069,-2.0201,-2.0147,-2.0164,-2.0223,-2.0253,-2.0263,-2.0287,-2.0349,-2.036,-2.0314,-2.041,-2.0423,-2.0475,-2.0486,-2.048,-2.0484,-2.0613,-2.0614,-2.0614,-2.0583,0,0,0,0,0,0,-2.0049,-2.0067,-2.0082,-2.0146,-2.0167,-2.0242,-2.0254,-2.0266,-2.0295,-2.0298,-2.0364,-2.0375,-2.041,-2.0467,-2.048,-2.0493,-2.0488,-2.0612,-2.0613,-2.0614,-2.0583,-2.0583,-2.0582,0,0,0,0,0,-2.0043,-2.007,-2.0082,-2.0097,-2.0186,-2.0242,-2.0254,-2.0293,-2.0295,-2.0311,-2.0351,-2.0372,-2.0483,-2.0472,-2.0487,-2.0502,-2.0611,-2.0613,-2.0614,-2.0583,-2.0583,-2.0582,0,0,0,0,0,0,-2.0007,-2.0079,-2.0094,-2.0142,-2.0185,-2.025,-2.0271,-2.0291,-2.0336,-2.0337,-2.0386,-2.04,-2.0448,-2.048,-2.0467,-2.0544,-2.0549,-2.0553,-2.052,-2.052,-2.052,-2.0511,-2.0493,0,0,0,0,0,-2.0004,-2.0042,-2.0104,-2.014,-2.0161,-2.0212,-2.0238,-2.0264,-2.0312,-2.0331,-2.0375,-2.0421,-2.0467,-2.0495,-2.054,-2.0588,-2.0604,-2.0606,-2.0605,-2.0604,-2.0608,-2.0635,-2.0637,-2.0619,-2.0619,-2.0619,0,0,-1.9999,-2.0043,-2.0065,-2.0134,-2.0171,-2.021,-2.0227,-2.0268,-2.0298,-2.0338,-2.0388,-2.0422,-2.0478,-2.0527,-2.0551,-2.0556,-2.0616,-2.0606,-2.0605,-2.0609,-2.0637,-2.0639,-2.064,-2.062,-2.062,-2.0619,0,0,-2.001,-2.0048,-2.0082,-2.0118,-2.0173,-2.0206,-2.0214,-2.0276,-2.0299,-2.0351,-2.0381,-2.0418,-2.0495,-2.0533,-2.0562,-2.0587,-2.0609,-2.0601,-2.0598,-2.0624,-2.0626,-2.0627,-2.0636,-2.0639,-2.0604,-2.0604,-2.0604,0,-1.9998,-2.0057,-2.0097,-2.0136,-2.0166,-2.0201,-2.0237,-2.0271,-2.0338,-2.0358,-2.0362,-2.0459,-2.0499,-2.0557,-2.0563,-2.0586,-2.0598,-2.0594,-2.0622,-2.0624,-2.0626,-2.0635,-2.0638,-2.0603,-2.0603,-2.0603,-2.0603,0,-2.0039,-2.008,-2.0101,-2.0163,-2.0195,-2.0232,-2.0279,-2.0307,-2.0331,-2.0364,-2.0416,-2.0465,-2.0521,-2.0537,-2.0561,-2.06,-2.06,-2.0612,-2.0619,-2.0626,-2.0635,-2.0639,-2.0601,-2.0601,-2.0602,-2.0602,0,0,-2.0031,-2.0113,-2.012,-2.0149,-2.0212,-2.0245,-2.0284,-2.0337,-2.036,-2.0405,-2.044,-2.0504,-2.0515,-2.0548,-2.0577,-2.06,-2.0617,-2.061,-2.0612,-2.0609,-2.0663,-2.0653,-2.0656,-2.0632,-2.0633,-2.0633,-2.0658,0,-2.005,-2.0119,-2.0156,-2.0211,-2.0249,-2.0284,-2.0318,-2.0361,-2.0393,-2.0432,-2.0469,-2.0513,-2.0525,-2.0545,-2.0569,-2.061,-2.0628,-2.0609,-2.0665,-2.0667,-2.065,-2.0661,-2.0651,-2.0672,-2.0662,-2.0663,-2.0663,0,-2.0082,-2.0124,-2.0182,-2.024,-2.0258,-2.0287,-2.0339,-2.0374,-2.0424,-2.0447,-2.0483,-2.0512,-2.0556,-2.0558,-2.062,-2.0606,-2.0631,-2.0655,-2.0657,-2.0663,-2.0665,-2.0668,-2.0679,-2.0682,-2.0669,-2.0669,-2.0668,0,-2.0069,-2.0142,-2.0185,-2.0209,-2.0278,-2.0298,-2.0328,-2.0377,-2.0406,-2.0452,-2.0471,-2.0522,-2.0549,-2.0588,-2.063,-2.0628,-2.0688,-2.0694,-2.0708,-2.0707,-2.0719,-2.0718,-2.0734,-2.0736,-2.0736,-2.0736,-2.0736,0,-2.0087,-2.012,-2.018,-2.0207,-2.0246,-2.0289,-2.0327,-2.036,-2.0404,-2.0439,-2.0473,-2.0505,-2.0558,-2.0598,-2.0631,-2.0677,-2.069,-2.071,-2.0718,-2.0706,-2.0704,-2.0724,-2.0723,-2.0737,-2.0736,-2.0736,-2.0736,0,-2.0079,-2.012,-2.017,-2.0231,-2.0247,-2.0273,-2.0326,-2.0354,-2.0388,-2.0432,-2.0445,-2.0499,-2.0547,-2.0592,-2.0658,-2.068,-2.0726,-2.0737,-2.0708,-2.0713,-2.0724,-2.0722,-2.0754,-2.0761,-2.0758,-2.0757,-2.0757,0,-2.0087,-2.0114,-2.0177,-2.0201,-2.023,-2.027,-2.0299,-2.0343,-2.0373,-2.0431,-2.0453,-2.0503,-2.0545,-2.0621,-2.0667,-2.0717,-2.073,-2.0737,-2.0737,-2.0725,-2.073,-2.0727,-2.073,-2.0736,-2.0736,-2.0736,-2.0736,0,-2.0097,-2.0116,-2.0156,-2.0203,-2.0237,-2.0277,-2.0318,-2.0337,-2.0389,-2.0421,-2.0469,-2.0502,-2.0567,-2.0617,-2.0672,-2.0705,-2.073,-2.0735,-2.0741,-2.073,-2.0712,-2.0721,-2.0706,-2.0735,-2.0735,-2.0735,-2.0735,-2.0735,-2.0098,-2.0123,-2.017,-2.0214,-2.0249,-2.0287,-2.0316,-2.0353,-2.0394,-2.0449,-2.0473,-2.0522,-2.0572,-2.0648,-2.0681,-2.0721,-2.0727,-2.0735,-2.0738,-2.0739,-2.0736,-2.0705,-2.0732,-2.0732,-2.0732,-2.0732,-2.0732,0,-2.0109,-2.0141,-2.0181,-2.0236,-2.0271,-2.0289,-2.0336,-2.0364,-2.0406,-2.045,-2.049,-2.0546,-2.0595,-2.0644,-2.0696,-2.0719,-2.0731,-2.0731,-2.073,-2.0737,-2.0729,-2.0718,-2.072,-2.072,-2.072,-2.072,-2.072,-2.072,-2.0119,-2.0162,-2.0187,-2.0248,-2.0281,-2.0327,-2.0352,-2.0388,-2.0423,-2.0483,-2.0523,-2.0554,-2.0601,-2.0656,-2.0702,-2.0715,-2.0733,-2.0729,-2.0746,-2.0737,-2.0738,-2.0738,-2.0729,-2.0733,-2.0733,-2.0751,-2.0751,-2.0751]},{"header":{"parameterUnit":"m.s-1","parameterCategory":1,"la1":30.2991,"la2":30.254,"lo1":-89.0895,"lo2":-89.0444,"dy":0.0017,"dx":0.0017,"nx":28,"ny":28,"refTime":"2026-01-09T03:00:00:Z","depth":0,"parameterNumber":3,"parameterNumberName":"V-component_of_WINDS"},"data":[0,0,0,0,0,0,0,0,0,0,0,0,0,0,0,0,0,0,0,0,0,0,0,0,0,0,0,0,0,0,0,0,0,0,0,0,0,0,0,0,0,0,0,0,0,0,0,0,0,0,0,0,0,0,0,0,0,0,4.0092,4.0093,0,4.0185,4.0186,4.0187,4.0205,4.0204,4.0203,4.0202,4.0297,4.03,4.0303,0,0,0,0,0,0,0,0,0,0,0,0,0,3.993,3.9933,4.0092,4.0094,4.0095,4.0185,4.0186,4.0188,4.0205,4.0204,4.0203,4.0202,4.0296,4.0299,4.0303,0,0,0,0,0,0,0,0,0,0,0,0,0,4.001,3.9934,4.0092,4.0114,4.0117,4.0185,4.0186,4.0188,4.0205,4.0204,4.0203,4.0202,4.0294,4.0299,4.0304,4.0356,0,0,4.0319,4.0321,0,0,0,0,0,0,0,0,4.0005,4.0016,4.011,4.0113,4.0116,4.0182,4.0164,4.0244,4.0205,4.0172,4.0202,4.0201,4.0259,4.0267,4.0287,4.036,4.0364,4.0319,4.0322,4.0324,4.0325,0,0,0,0,0,0,0,4.0,4.0012,4.0129,4.0111,4.0115,4.012,4.013,4.0179,4.0221,4.0174,4.0176,4.0187,4.0261,4.0282,4.0289,4.0366,4.0319,4.0323,4.0326,4.0328,4.049,4.0491,0,0,0,0,0,0,3.999,4.0007,4.0126,4.0132,4.0057,4.0123,4.0135,4.0162,4.022,4.0228,4.0188,4.0187,4.0275,4.0284,4.0293,4.036,4.0324,4.0328,4.0331,4.0489,4.049,4.0492,0,0,0,0,0,0,3.9987,4.0001,4.0122,4.007,4.0086,4.0127,4.0158,4.0165,4.0186,4.023,4.0238,4.0202,4.0274,4.0286,4.0341,4.0364,4.0331,4.0335,4.0487,4.0489,4.0491,4.0494,0,0,0,0,0,0,3.9982,3.9999,4.0019,4.007,4.0089,4.0169,4.0159,4.0167,4.0194,4.0195,4.0245,4.0253,4.0274,4.0334,4.0346,4.037,4.0339,4.0485,4.0488,4.049,4.0492,4.0496,4.05,0,0,0,0,0,3.9976,4.0016,4.002,4.0035,4.0115,4.017,4.0181,4.0205,4.0196,4.0217,4.0246,4.0251,4.0359,4.0339,4.0353,4.0379,4.0484,4.0487,4.049,4.0491,4.0496,4.05,0,0,0,0,0,0,3.9966,4.0023,4.0028,4.0086,4.0123,4.0173,4.02,4.0209,4.0249,4.0248,4.0275,4.0287,4.0341,4.0365,4.0342,4.0434,4.0421,4.0427,4.0417,4.0421,4.0425,4.0419,4.0343,0,0,0,0,0,3.997,4.0011,4.0058,4.0104,4.0123,4.0158,4.0183,4.0199,4.0239,4.0254,4.0287,4.0325,4.0368,4.0396,4.0437,4.0495,4.0508,4.052,4.0523,4.0526,4.0532,4.0567,4.0574,4.0502,4.0502,4.0502,0,0,3.998,4.0016,4.004,4.0103,4.0134,4.0176,4.0171,4.0215,4.0247,4.0261,4.0316,4.0341,4.0386,4.0443,4.047,4.0465,4.0554,4.053,4.0532,4.0537,4.0571,4.0578,4.0584,4.0505,4.0504,4.0504,0,0,4.0019,4.005,4.0093,4.0124,4.0171,4.0195,4.0205,4.0254,4.0272,4.0328,4.034,4.0377,4.045,4.0482,4.0508,4.0561,4.0569,4.0574,4.0594,4.0628,4.0634,4.0639,4.0661,4.0668,4.0579,4.0579,4.0579,0,4.0025,4.0089,4.0114,4.0159,4.0187,4.0202,4.0246,4.0275,4.0333,4.0353,4.0346,4.0439,4.047,4.0537,4.055,4.0569,4.0583,4.0569,4.0631,4.0636,4.0641,4.0663,4.0671,4.0579,4.0579,4.0579,4.0579,0,4.0096,4.014,4.0169,4.0227,4.0258,4.0302,4.0334,4.0363,4.0375,4.04,4.0458,4.0495,4.0546,4.0562,4.0574,4.0632,4.0627,4.0625,4.0613,4.0648,4.0669,4.0677,4.058,4.058,4.058,4.058,0,0,4.0132,4.0203,4.0214,4.0241,4.0295,4.033,4.0375,4.0425,4.0451,4.049,4.0531,4.0592,4.0591,4.062,4.0636,4.0666,4.071,4.0661,4.0662,4.0671,4.0778,4.0782,4.0791,4.0714,4.0716,4.0717,4.0776,0,4.0181,4.0263,4.0287,4.0357,4.0399,4.0414,4.0454,4.0492,4.0516,4.0556,4.0582,4.0627,4.062,4.0639,4.0668,4.0698,4.0732,4.0694,4.0753,4.0755,4.0745,4.0801,4.0805,4.0858,4.0784,4.0785,4.0786,0,4.0248,4.0291,4.0365,4.0416,4.0434,4.047,4.0519,4.0556,4.06,4.0615,4.0649,4.0663,4.0712,4.0695,4.0764,4.0738,4.0763,4.0782,4.0784,4.0793,4.0775,4.0814,4.0876,4.0885,4.0798,4.0797,4.0796,0,4.0271,4.0347,4.0402,4.0424,4.0483,4.0508,4.0534,4.0576,4.0606,4.0649,4.0669,4.0716,4.0743,4.0779,4.0806,4.0791,4.0874,4.0859,4.089,4.0889,4.0909,4.0908,4.0978,4.092,4.092,4.092,4.092,0,4.0325,4.037,4.0413,4.0447,4.0499,4.0526,4.0577,4.0603,4.0641,4.0681,4.0696,4.0733,4.0765,4.0807,4.0827,4.0883,4.0894,4.091,4.0915,4.091,4.0909,4.0929,4.0927,4.0922,4.0922,4.0921,4.0921,0,4.036,4.039,4.0452,4.0503,4.0518,4.0554,4.0598,4.0633,4.0657,4.0708,4.0721,4.076,4.0811,4.084,4.0903,4.0917,4.098,4.0982,4.0966,4.0969,4.1,4.0998,4.1089,4.1103,4.1032,4.1033,4.1033,0,4.0393,4.0429,4.0485,4.0514,4.054,4.0585,4.0616,4.0643,4.0675,4.0728,4.0756,4.0808,4.0851,4.093,4.0964,4.1013,4.1019,4.1047,4.1026,4.1021,4.1023,4.1022,4.1027,4.1052,4.1052,4.1053,4.1053,0,4.0451,4.0464,4.0508,4.0558,4.0595,4.0635,4.0675,4.0697,4.0732,4.0767,4.0819,4.0852,4.0917,4.0969,4.1021,4.1048,4.1058,4.1059,4.107,4.1066,4.1057,4.1066,4.0979,4.1058,4.1057,4.1057,4.1057,4.1056,4.0488,4.0522,4.0567,4.0616,4.065,4.0687,4.0723,4.0753,4.0797,4.0853,4.0866,4.0922,4.0966,4.1037,4.1065,4.1109,4.1105,4.1119,4.1123,4.1127,4.113,4.1047,4.1118,4.1118,4.1118,4.1118,4.1118,0,4.0549,4.0579,4.0624,4.0681,4.072,4.0724,4.0769,4.0802,4.0851,4.0891,4.0934,4.0995,4.1045,4.1084,4.1136,4.1164,4.117,4.1177,4.1177,4.1183,4.1129,4.1116,4.1172,4.1172,4.1172,4.1171,4.1171,4.1171,4.0586,4.0644,4.0663,4.0738,4.0768,4.0823,4.0849,4.0884,4.0917,4.0985,4.1028,4.1052,4.1093,4.1148,4.1195,4.1205,4.1225,4.1232,4.1243,4.1192,4.1187,4.1181,4.117,4.1235,4.1235,4.1294,4.1295,4.1295]}]]